Location: Aressy
(43.2833°N, 0.3167°W)
Time: 18:21:18
(UTC+00:00)

PSLV R/B - Pass Details

Date: 28 January 2021
Orbit: 567 x 598 km, 98.2° (Epoch: 03 March)

Event Time Altitude Azimuth Distance (km) Brightness Sun altitude
Exits shadow 18:27:53 - 15° (NNE) 2,781 7.1 -14.6°
Reaches altitude 10° 18:29:54 10° 18° (NNE) 1,947 6.3 -15.0°
Maximum altitude 18:34:07 69° 102° (ESE) 643 3.9 -15.8°
Drops below altitude 10° 18:38:17 10° 186° (S) 1,923 6.8 -16.5°
Sets 18:40:26 0° 189° (S) 2,816 7.7 -16.9°
